User: anonymous   Login
Location: Unspecified
(20.0000°S, 0.0000°E)
Time: 06:47:11
(UTC+00:00)
Language:

XW-2D - Orbit

View from above orbital plane
View from above orbital plane
View from above satellite
View from above satellite

Ground track
Ground track

The orbit data is extracted from the following two-line orbital elements,

1 40907U 15049J   19198.74962325  .00000248  00000-0  16378-4 0  9998
2 40907  97.4644 200.0240 0015747  94.8970 319.3605 15.15879561211419
Epoch (UTC): 17 July 2019 17:59:27
Eccentricity: 0.0015747
inclination: 97.4644°
perigee height: 507 km
apogee height: 529 km
right ascension of ascending node: 200.0240°
argument of perigee: 94.8970°
revolutions per day: 15.15879561
mean anomaly at epoch: 319.3605°
orbit number at epoch: 21141

The dashed part of the orbit path shows where the satellite is in the earth's shadow,  

DLR